sat.trackr.live / text

‹ back to catalog

STARLINK-37084

NORAD 68254 · 2026-054Y

PAYLOAD ACTIVE UNKNOWN

§ Identity

Operator
Country
US
Launch date
2026-03-17
Launch site
AFETR
Launch vehicle
Mass (kg)
RCS (m²)

Purposes: comms

External: N2YO · Heavens-Above · Gunter

§ Orbital elements

Epoch: 2026-05-25T03:20:38.522400Z

Period
92.94 min
Inclination
53.1583°
Eccentricity
0.0001291
Mean motion
15.49362342 rev/d
Perigee alt
417.7 km
Apogee alt
419.5 km
Semi-major
6,796.7 km
B*
1.1276e-3
RAAN
297.7261°
Arg perigee
92.1817°
Mean anomaly
267.9340°
Rev number
1,075

§ Raw data

STARLINK-370841 68254U 26054Y   26145.13933475  .00062887  00000+0  11276-2 0  99942 68254  53.1583 297.7261 0001291  92.1817 267.9340 15.49362342 10750

JSON: /api/v1/satellites/68254 · /tle

For live sub-satellite position, see the globe view (requires WebGL).

§ Visibility from observer

Set your observer location to see the next 7 days of passes ≥ 10°. The values pass through the URL so the page stays shareable.

No JS? Fill the form by hand. The geolocation button needs JavaScript.